Location: Morgan
(32.0188°N, 97.6084°W)
Time: 04:10:09
(UTC+00:00)

Daily predictions for brighter satellites

Satellite Brightness Start Highest point End
(mag) Time Altitude Azimuth Time Altitude Azimuth Time Altitude Azimuth
CZ-3B R/B 3.9 01:17:14 10° NW 01:21:18 55° SW 01:34:08 10° SSE
CZ-4B R/B 3.6 01:17:14 10° S 01:22:14 81° WSW 01:27:08 10° NNW
APEX 2.8 01:21:40 10° N 01:24:47 50° ENE 01:27:38 10° SE
CZ-4B R/B 4.3 01:24:01 10° ESE 01:28:38 27° ENE 01:33:15 10° NNE
Cosmos 1674 Rocket 3.8 01:27:28 10° N 01:31:49 52° E 01:36:08 10° SSE
Cosmos 1825 3.5 01:29:39 10° NE 01:32:01 17° ENE 01:34:22 10° ESE
USA 234 4.2 01:28:55 10° E 01:34:38 33° NE 01:40:20 10° NNW
NOSS 3-1 (C) 3.4 01:30:37 10° S 01:34:45 33° ESE 01:39:18 10° NE
Meteor 2-11 Rocket 4.4 01:30:57 10° N 01:37:02 68° E 01:43:03 10° SSE
Hubble Space Telescope 1.2 01:34:32 10° WSW 01:38:21 45° S 01:41:39 13° ESE
Cosmos 2082 Rocket 3.0 01:33:52 10° NNW 01:39:26 55° WSW 01:44:57 10° S
Resurs 1-3 3.8 01:37:23 10° SSE 01:41:32 48° ENE 01:45:44 10° N
[s.n.70599] 2.6 01:42:04 10° NW 01:44:33 52° NNE 01:46:07 19° ESE
IKONOS-2 4.4 01:45:42 10° NNE 01:49:55 79° ESE 01:54:06 10° S
Okean O Rocket 2.9 01:49:28 16° ESE 01:51:37 22° ENE 01:54:59 10° NNE
Cosmos 1025 Rocket 3.8 01:48:46 10° NNE 01:52:38 31° E 01:55:30 16° SE
ATLAS 3B R/B 3.3 01:50:01 10° S 01:55:54 32° ESE 02:02:09 10° NE
Resurs 01 Rocket 2.7 01:55:01 18° ESE 01:57:14 27° ENE 02:00:56 10° NNE
YAOGAN 1 4.2 01:53:38 10° SSW 01:57:35 36° W 02:01:33 10° NNW
Cosmos 2218 Rocket 4.5 01:52:27 10° N 01:58:26 41° E 02:03:55 12° SSE
Cosmos 1346 Rocket 2.6 01:56:10 10° S 01:59:58 73° E 02:03:47 10° NNE
SJ-6B 2.8 01:57:54 10° SSE 02:01:48 89° SW 02:05:47 10° NNW
USA 281 4.2 01:59:34 17° ESE 02:03:14 28° ENE 02:08:38 10° N
Cosmos 1975 Rocket 4.3 02:01:22 10° NNE 02:04:42 21° ENE 02:05:12 21° E
Cosmos 1302 Rocket 4.1 01:59:33 10° SSW 02:04:49 81° WNW 02:10:05 10° NNE
Cosmos 1328 3.9 02:06:24 10° N 02:10:05 47° E 02:11:46 27° SE
OAO 3 Rocket 3.6 02:05:26 10° W 02:10:16 60° N 02:13:29 21° ENE
Cosmos 1782 Rocket 3.4 02:09:12 10° S 02:13:32 80° E 02:17:54 10° N
PAYLOAD B 4.3 02:10:24 10° S 02:15:54 79° WSW 02:21:29 10° NNW
Meteor 1-21 Rocket 4.4 02:10:07 10° N 02:15:56 56° E 02:20:11 18° SSE
USA 186 1.5 02:16:17 38° SSE 02:17:17 71° ENE 02:20:20 10° N
DELTA 2 R/B (1) 3.6 02:11:49 10° WNW 02:17:26 73° NNE 02:20:22 29° ESE
Cosmos 1892 2.7 02:15:06 10° NNW 02:18:39 69° W 02:21:37 14° S
CZ-4 R/B 2.0 02:18:12 10° S 02:22:06 54° W 02:25:57 10° NNW
ATLAS 5 CENTAUR R/B 0.6 02:18:52 10° SSW 02:22:10 74° ESE 02:25:33 10° NNE
Delta 2 Rocket 4.3 02:17:22 10° WSW 02:24:04 52° S 02:26:51 31° SE
Cosmos 1455 3.1 02:22:45 10° SSW 02:26:11 46° W 02:29:38 10° N
Cosmos 864 Rocket 4.4 02:22:30 10° N 02:28:44 77° E 02:34:03 15° S
Cosmos 968 Rocket 3.4 02:23:51 10° NNW 02:28:58 84° WSW 02:32:17 22° SSE
Feng Yun 1-1 Rocket 4.1 02:28:09 18° SSE 02:32:16 88° E 02:37:52 10° NNW
CSL-04 Debris 4.1 02:34:11 22° SSE 02:37:44 90° W 02:43:12 10° NNW
Cosmos 1300 Rocket 4.0 02:35:41 10° SSW 02:39:57 62° W 02:44:18 10° N
CSL-04 Rocket 3.7 02:45:00 26° S 02:48:13 79° WSW 02:53:45 10° NNW
Timation 1 Rocket 4.4 02:43:01 10° NNW 02:48:58 74° WSW 02:51:45 33° S
In-Cosmos 22 Rocket 4.0 02:48:17 10° N 02:53:43 73° E 02:54:49 56° SE
SJ 16-02 1.2 02:49:34 10° NNW 02:53:54 83° WSW 02:54:07 79° SSW
CZ-4C R/B 4.1 02:54:14 10° N 02:56:35 39° NNW 02:56:35 39° NNW
NOSS 3-1 (A) 2.8 02:56:53 10° SSW 03:01:34 86° WNW 03:06:53 10° NNE
Cosmos 2098 Rocket 4.1 02:56:55 10° SSW 03:02:35 55° W 03:07:18 10° N
Okean-O 2.9 03:06:02 60° N 03:06:02 60° N 03:09:40 10° N
Terra 3.9 03:09:26 16° NNE 03:09:26 16° NNE 03:10:42 10° NNE
Atlas Centaur 2 3.8 03:04:27 10° SW 03:05:22 14° SW 03:05:22 14° SW
USA 234 3.5 03:15:42 48° S 03:17:18 62° SW 03:23:46 10° NW
Hubble Space Telescope 2.8 03:14:58 10° W 03:16:31 21° WSW 03:16:31 21° WSW
Cosmos 1833 4.1 03:14:16 10° NNW 03:19:54 78° WSW 03:19:59 78° WSW
Milstar 3 4.3 03:17:06 10° WSW 03:27:43 74° S 03:37:38 35° E
Okean O Rocket 3.5 03:26:49 22° WSW 03:27:44 24° W 03:31:15 10° NW
Resurs 01 Rocket 3.8 03:32:30 19° WSW 03:33:36 20° W 03:36:53 10° NW
ATLAS 3B R/B 3.8 03:39:50 10° WSW 03:46:20 42° NW 03:53:19 10° NNE
USA 281 3.9 03:46:26 43° SW 03:47:23 46° WSW 03:53:40 10° NW
Centaur D-1AR AC-36 3.9 03:47:11 10° WSW 04:13:23 20° E 04:38:55 10° E
Centaur D-1AR AC-36 3.9 03:47:10 10° WSW 04:13:23 20° E 04:38:55 10° E
SPOT 5 4.5 04:03:53 35° NW 04:03:53 35° NW 04:07:22 10° NNW
Cosmos 2297 Rocket 4.5 04:39:53 10° NNW 04:41:24 19° N 04:41:24 19° N
Resurs 1-4 Rocket 4.4 08:28:45 10° N 08:30:10 19° N 08:30:10 19° N
H-2A R/B 4.3 08:46:24 39° SE 08:46:24 39° SE 09:05:17 10° ESE
Cosmos 2219 Rocket 4.4 08:55:50 16° NNW 08:55:50 16° NNW 08:57:12 10° N
Cosmos 2278 Rocket 4.4 08:48:48 10° N 08:53:04 21° ENE 08:57:18 10° ESE
CZ-2C R/B 4.3 09:09:34 10° NE 09:13:49 25° E 09:14:38 24° ESE
BREEZE-M DEB (TANK) 4.1 09:13:45 74° W 09:14:28 79° NW 09:39:20 10° NE
ADEOS II 3.8 09:15:23 10° N 09:17:38 24° NNW 09:17:38 24° NNW
Cosmos 1092 Rocket 4.0 09:24:59 75° E 09:24:59 75° E 09:31:03 10° N
Cosmos 2026 Rocket 3.9 09:32:11 85° SE 09:32:21 86° E 09:38:42 10° N
CZ-2D R/B 4.2 09:29:29 10° NNW 09:30:50 15° NNW 09:30:50 15° NNW
BREEZE-M DEB (TANK) 3.6 09:34:04 59° NW 09:34:04 59° NW 09:37:36 10° NE
Envisat 3.4 09:29:51 10° NNE 09:34:50 56° E 09:34:50 56° E
SL-16 R/B 2.7 09:36:56 56° NW 09:36:56 56° NW 09:41:54 10° NNW
EO 1 Delta rocket 4.3 09:38:17 10° N 09:41:50 54° N 09:41:50 54° N
Meteor 1-27 Rocket 4.2 09:46:39 48° NW 09:46:39 48° NW 09:51:18 10° N
Meteor 2-4 Rocket 3.9 09:48:37 45° SSE 09:50:04 62° E 09:55:27 10° NNE
CZ-4 R/B 4.1 09:46:07 10° N 09:49:59 58° N 09:49:59 58° N
Cosmos 1943 Rocket 3.6 09:47:10 10° N 09:52:25 38° ENE 09:57:38 10° SE
Thor Agena Rocket 3.8 09:47:38 10° NNE 09:52:37 61° ESE 09:53:50 47° SSE
Cosmos 1627 Rocket 4.4 09:53:01 62° W 09:53:22 63° W 09:59:40 10° N
YAOGAN 6 4.3 09:51:09 10° NNE 09:53:02 29° NE 09:53:02 29° NE
H-2A R/B 4.5 09:52:52 10° NE 09:56:20 19° E 09:59:52 10° SE
Cosmos 2237 Rocket 2.8 09:58:31 40° NW 09:58:31 40° NW 10:03:25 10° N
Cosmos 1980 4.4 09:59:54 36° NW 09:59:54 36° NW 10:04:37 10° N
NOAA 11 4.1 09:55:20 10° NNE 10:00:48 86° ESE 10:02:18 50° S
Cosmos 2112 Rocket 3.9 10:01:07 70° WSW 10:01:30 74° WNW 10:06:51 10° NNE
Cosmos 1340 Rocket 3.6 10:04:12 41° N 10:04:12 41° N 10:06:49 10° N
ALOS 4.0 10:00:15 10° NNW 10:02:16 20° NW 10:02:16 20° NW
Cosmos 1867 3.4 10:00:48 10° NNW 10:06:15 70° WSW 10:11:37 10° SSE
Cosmos 1328 Rocket 3.5 10:08:30 64° S 10:09:08 84° E 10:13:34 10° N
ATLAS 2AS CENTAUR R/B 2.8 10:07:20 39° SSW 10:10:30 85° WNW 10:17:50 10° NNE
Cosmos 1805 3.2 10:09:50 10° N 10:13:31 74° E 10:13:51 68° SE
Delta 128 3.8 10:17:14 49° S 10:17:14 49° S 10:21:34 10° ESE
Meteor 2-9 Rocket 4.4 10:12:34 10° NNW 10:17:38 44° W 10:17:38 44° W
Chandra Rocket (1) 2.3 10:18:55 40° SSE 10:18:55 40° SSE 10:23:48 10° E
IRS-1D 3.5 10:18:51 10° N 10:23:55 68° WNW 10:26:05 35° SSW
Cosmos 1633 Rocket 3.3 10:19:51 10° N 10:24:10 67° E 10:28:29 10° SSE
CSL-04 DEB 4.3 10:20:09 10° N 10:24:19 82° WNW 10:25:35 44° SSW
Cosmos 2266 Rocket 4.4 10:21:51 10° S 10:27:52 63° E 10:33:50 10° NNE
Cosmos 1680 Rocket 4.3 10:28:09 32° W 10:28:40 33° WNW 10:33:26 10° N
ASC 2 Rocket 4.2 10:32:35 29° SSW 10:34:00 35° S 10:39:37 10° ESE
Iridium 51 3.8 10:33:29 33° S 10:34:55 88° E 10:38:16 10° N
Cosmos 2278 Rocket 2.5 10:31:56 10° NW 10:37:16 43° WSW 10:42:34 10° S
NOSS 2-2 (C) 4.4 10:32:59 10° NNW 10:38:14 87° ENE 10:45:47 10° SSE
USA 308 3.1 10:41:23 36° WNW 10:42:11 43° NW 10:45:55 10° NNE
Cosmos 1461 2.7 10:38:39 10° NW 10:42:21 52° WSW 10:46:03 10° SSE
Cosmos 1674 3.4 10:39:42 10° SSE 10:43:00 47° E 10:46:19 10° NNE
Delta 2 Rocket 4.3 10:40:59 26° SSW 10:43:22 47° SSE 10:47:53 10° E
Cosmos 1420 Rocket 3.9 10:38:25 10° NNW 10:43:41 82° WSW 10:48:58 10° SSE
Cosmos 494 Rocket 3.9 10:42:24 20° SSW 10:46:00 70° WNW 10:51:09 10° N
ATLAS 5 CENTAUR R/B 3.1 10:42:33 22° WSW 10:46:49 30° SSW 10:50:49 10° SE
Cosmos 2056 Rocket 3.5 10:42:17 10° NNW 10:47:43 90° SSW 10:53:07 10° SSE
SL-16 R/B 2.3 10:45:14 23° SW 10:48:38 54° WNW 10:54:10 10° N
Sakura Rocket 3.9 10:50:19 22° SSW 10:50:36 22° SSW 10:53:38 10° SE
Cosmos 2344 4.5 10:41:15 10° NW 10:50:45 63° WSW 11:04:10 10° SSE
CZ-2C R/B 3.4 10:47:23 10° N 10:51:50 30° WNW 10:53:57 22° WSW
Cosmos 1626 2.6 10:51:53 31° W 10:52:04 31° W 10:55:03 10° NNW
Cosmos 1766 3.4 10:49:54 10° N 10:53:35 68° E 10:57:13 10° SSE
Cosmos 1939 Rocket 3.7 10:50:27 10° NNE 10:54:06 47° E 10:57:44 10° S
Cosmos 921 Rocket 4.1 10:53:26 23° W 10:54:17 25° WNW 10:57:49 10° NNW
KORONAS-FOTON 4.2 10:51:30 10° S 10:55:06 61° E 10:58:44 10° NNE
Cosmos 1340 2.8 10:52:29 10° NNW 10:55:43 40° W 10:58:35 12° SSW
Cosmos 1553 Rocket 4.1 10:52:05 10° NNW 10:58:05 50° W 11:03:58 10° SSW
Cosmos 1515 Rocket 3.6 10:54:42 11° SSW 10:58:55 57° W 11:03:18 10° N
Cosmos 1624 Rocket 3.9 10:54:50 10° NNW 11:00:01 69° WSW 11:05:09 10° S
Cosmos 1975 3.6 10:57:03 10° NNW 11:00:24 28° W 11:02:30 17° SW
ASTRO E2 3.0 11:00:59 22° SW 11:02:54 44° SSE 11:06:17 10° E
Cosmos 1484 Rocket 2.7 11:05:27 10° N 11:08:57 53° WNW 11:12:26 10° SSW
Cosmos 1470 Rocket 3.6 11:06:03 10° NNW 11:10:21 54° W 11:14:39 10° S
CBERS-1 4.1 11:08:58 10° N 11:13:56 56° WNW 11:18:54 10° SSW
ATLAS 5 CENTAUR R/B 3.7 11:08:52 10° NNW 11:14:01 42° ENE 11:20:12 10° SE
H-2A R/B 2.4 11:12:26 10° NNE 11:15:47 83° E 11:19:05 10° S
CZ-3 R/B 3.2 11:01:21 13° WSW 11:20:24 54° S 11:26:54 10° E
In-Cosmos 22 4.5 11:17:51 10° S 11:23:10 71° E 11:28:38 10° NNE
YAOGAN 11 4.1 11:23:27 10° S 11:27:53 76° WSW 11:32:24 10° NNW
Cosmos 1842 3.9 11:26:13 10° SW 11:29:34 32° W 11:32:57 10° NNW
COSMO-SKYMED 1 4.1 11:26:48 10° SE 11:30:53 43° ENE 11:35:00 10° N
USA 290 2.0 11:28:00 10° NNW 11:31:03 69° WSW 11:34:04 10° S
BlueWalker 3 1.9 11:30:10 10° NW 11:34:00 88° NE 11:37:48 10° SE
IRS-1C 4.2 11:28:51 10° NNE 11:34:12 90° W 11:39:31 10° SSW
H-2A R/B 2.5 11:31:06 10° N 11:35:45 39° WNW 11:40:30 10° SW
Cosmos 1943 Rocket 3.2 11:31:29 10° NW 11:35:50 23° W 11:40:11 10° SSW
Cosmos 1933 Rocket 3.7 11:33:25 10° NNW 11:37:40 53° W 11:41:51 10° S
